SCP
0 0 0 0 0 0 0 0 0 0 0 0 0 0 0 0 0 0 0 0 0 0 0 0 0 0 0 0 0 0 1 1 2 1 1 0 0 0 0 0 0 0 0 0
0 0 0 0 0 0 0 0 0 0 0 0 0 0 0 0 0 0 0 0 0 0 0 0 0 0 0 0 0 1 1 1 2 1 1 0 0 0 0 0 0 0 0 0
0 0 0 0 0 0 0 0 0 0 0 0 0 0 0 0 0 0 0 -0 0 0 0 0 0 0 0 0 1 2 1 1 1 1 0 0 0 0 0 0 0 0 0 0
0 0 0 0 0 0 0 0 0 0 0 0 0 0 0 0 0 -0 0 -0 0 0 0 0 0 0 0 0 1 1 1 1 1 0 0 0 0 0 0 0 0 0 0 0
0 0 0 0 0 0 0 0 0 0 0 0 0 0 -0 0 0 -0 -0 0 0 -0 0 0 0 0 0 0 1 1 1 1 0 0 0 0 0 0 0 0 0 0 0 0
0 0 0 0 0 0 0 0 0 0 0 0 0 0 0 -0 -0 0 0 0 0 -0 -0 0 0 0 0 0 1 1 0 0 0 0 0 0 0 0 0 0 0 0 0 0
0 0 0 0 0 0 0 0 0 0 0 0 0 0 0 0 0 0 0 0 0 0 0 0 0 0 0 0 0 0 0 0 0 0 0 0 0 0 0 0 0 0 0 0
0 0 0 0 0 0 0 0 0 0 0 0 0 0 -0 -0 0 -0 0 0 0 0 0 0 -0 0 0 0 0 0 0 0 0 0 0 0 0 0 0 0 0 0 0 0
0 0 0 0 0 0 0 0 0 0 0 0 0 0 -0 -0 0 -0 0 0 0 0 0 -0 0 0 0 0 0 0 0 0 0 0 0 0 0 0 0 0 0 0 0 0
-0 -0 -0 0 0 0 0 0 0 0 0 0 0 0 0 0 0 0 0 0 0 0 0 0 0 0 0 0 0 0 0 0 0 0 0 0 0 0 0 0 0 0 0 0
0 -0 0 0 0 0 0 0 0 0 0 0 0 -0 0 0 0 0 0 0 -0 -0 -0 0 0 0 0 0 0 0 0 0 0 0 0 0 0 0 0 0 0 0 0 0
0 -0 -0 0 0 0 0 0 0 0 0 0 0 -0 0 0 0 0 -0 0 -0 -0 -0 0 0 0 0 0 0 0 0 0 0 0 0 0 0 0 0 0 0 0 0 0
0 0 -0 0 0 0 0 0 0 0 0 0 0 -0 -0 -0 -0 0 0 0 -0 -0 -0 0 -0 -0 0 0 0 0 0 0 0 0 0 0 0 0 0 0 0 0 0 -0
0 0 0 0 0 0 0 0 0 0 0 0 0 -0 0 -0 0 0 0 0 -0 -0 -0 0 -0 0 0 0 0 0 0 0 0 0 0 0 0 0 0 0 0 0 0 -0
0 0 -0 0 0 0 0 0 0 0 0 0 0 0 -0 -0 0 0 0 0 -0 -0 0 -0 -0 0 0 0 0 0 -0 0 0 0 0 0 0 0 0 0 0 0 0 -0
0 -0 0 -0 -0 0 0 0 0 0 0 0 0 0 0 0 0 0 0 0 -0 -0 0 -0 -0 -0 0 -0 -0 -0 -0 0 -0 0 0 0 -0 0 0 0 0 0 0 -0
-0 -0 -0 -0 -0 0 0 0 0 0 0 0 0 0 0 0 0 0 0 0 -0 0 0 0 -0 0 0 -0 -0 -0 -0 -0 -0 -0 -0 -0 -0 -0 0 0 0 0 -0 -0
0 -0 0 -0 -0 0 0 0 0 0 0 0 0 0 0 0 0 0 0 0 0 0 0 0 0 0 0 -0 -0 -0 -0 -0 -0 -0 -0 -0 -0 0 0 0 0 0 0 0
-0 -0 0 0 0 -0 0 0 0 0 1 0 0 0 0 0 0 0 0 0 0 0 0 0 0 0 0 -0 0 -0 -0 -0 -0 -0 -0 -0 0 -0 0 0 0 0 0 0
-0 0 0 0 -0 0 0 0 0 0 0 0 0 0 0 0 0 0 0 0 0 0 0 0 0 0 0 -0 -0 -0 -0 -0 -0 -0 -0 -0 -0 -0 0 0 0 0 0 0
-0 0 0 -0 0 0 0 0 0 1 0 0 0 0 0 0 0 0 0 0 0 0 0 0 0 0 -0 -0 -0 -0 -0 -0 -0 -0 -0 -0 -0 -0 0 0 0 0 0 0
-0 0 0 0 0 0 -0 0 0 0 0 0 0 0 0 0 0 0 0 0 0 0 0 0 0 0 0 -0 -0 -0 -0 -0 -0 -0 -0 -0 -0 -0 0 0 0 0 0 0
-0 -0 -0 0 0 0 -0 0 0 0 0 0 0 0 0 0 0 0 0 0 0 0 0 0 0 0 0 0 -0 -0 -0 -0 -0 -0 -0 -0 -0 -0 -0 0 0 0 0 0
-0 -0 -0 -0 -0 0 -0 -0 -0 0 0 0 0 0 0 0 0 0 0 0 0 0 0 0 0 0 0 0 0 0 -0 -0 -0 -0 -0 -0 -0 -0 0 0 0 0 0 0
-0 -0 -0 -0 -0 -0 -0 0 -0 0 0 0 0 0 0 0 0 0 0 0 0 0 0 0 0 0 0 0 0 0 0 -0 -0 -0 -0 -0 -0 -0 0 0 0 0 0 0
-0 -0 -0 -0 0 0 0 -0 -0 -0 0 0 0 0 0 0 0 0 0 0 0 0 0 0 0 0 0 0 0 0 0 -0 -0 -0 -0 -0 0 0 0 0 0 -0 -0 0
Wind_Speed_500mb
11 8 36 47 36 24 19 36 17 5 25 31 36 36 40 38 37 41 70 65 77 83 87 76 66 59 53 56 50 43 46 49 44 47 61 59 56 50 47 45 45 38 30 29
10 39 29 20 14 27 29 28 32 17 17 22 31 45 47 42 38 58 62 63 72 73 86 75 60 54 46 45 43 42 49 46 47 51 62 70 64 49 43 45 42 36 32 32
21 9 18 33 25 30 32 40 31 24 27 46 25 24 23 26 30 52 51 68 73 64 63 62 58 54 51 46 41 49 49 46 44 47 49 48 45 38 44 38 34 39 35 32
19 18 28 23 44 26 39 17 31 32 21 31 17 36 45 36 45 36 41 59 57 64 72 67 54 58 53 43 44 43 42 40 42 41 40 40 38 45 42 33 29 36 40 38
21 13 5 25 31 27 41 23 30 26 22 32 38 13 52 12 35 28 24 47 63 77 68 65 59 53 48 46 50 40 35 39 38 35 30 37 36 31 25 30 30 26 35 35
28 28 22 18 23 17 10 17 20 19 8 19 19 16 56 30 43 29 12 49 65 76 75 65 44 41 52 50 44 36 36 40 37 36 40 35 37 38 29 28 24 24 24 27
5 19 30 27 23 18 10 3 5 5 11 33 24 18 45 11 6 16 23 44 73 73 59 50 40 57 59 54 44 38 45 48 44 42 44 35 37 32 26 28 25 23 23 28
3 7 12 3 5 5 12 18 10 14 8 14 17 26 34 38 62 65 66 63 77 67 32 39 53 68 65 56 46 48 52 53 49 47 40 32 33 28 26 24 25 21 21 20
3 7 9 17 13 12 11 19 10 10 29 1 14 20 37 42 47 42 47 42 61 45 37 59 70 69 61 53 48 52 61 55 50 45 35 29 30 29 23 17 17 18 20 14
2 6 13 10 8 10 18 7 9 8 12 18 13 15 21 13 20 23 21 32 32 37 56 65 69 64 55 46 49 59 55 52 47 38 27 20 19 16 11 13 17 14 14 10
7 7 8 9 7 9 3 8 8 7 8 19 12 17 12 25 24 30 30 40 59 67 69 73 67 60 53 51 59 55 48 47 42 30 20 22 15 10 9 11 11 12 12 12
8 3 8 20 32 34 13 9 11 8 19 9 21 37 16 21 21 23 19 40 64 78 82 77 70 65 61 61 60 53 47 41 31 23 29 16 16 9 10 11 13 10 13 14
7 5 8 18 6 10 8 6 3 10 12 36 12 17 21 18 30 40 10 40 53 64 69 73 70 67 65 64 58 51 43 37 33 27 29 20 12 8 12 12 11 12 17 22
10 8 11 12 18 13 20 17 12 3 5 21 35 33 43 34 40 39 21 46 64 76 80 79 76 70 67 63 57 51 42 36 35 34 28 19 6 4 15 12 11 13 21 25
10 10 18 29 31 32 34 37 23 17 12 5 12 19 37 37 40 42 37 57 59 63 70 77 81 75 71 67 58 51 43 37 37 36 28 20 10 6 14 13 12 14 23 26
5 6 5 28 38 39 41 37 27 28 22 20 30 33 34 42 43 18 55 68 66 69 71 74 79 75 72 67 59 56 48 43 39 40 30 22 14 14 11 11 15 15 20 28
13 9 5 17 18 8 14 24 27 14 10 7 9 14 22 11 27 19 11 71 71 73 76 82 83 77 73 65 56 58 53 48 42 42 32 22 17 14 9 7 17 18 19 27
14 11 7 13 15 8 4 10 4 8 15 5 17 34 23 2 6 37 20 36 59 69 69 77 80 75 66 61 54 53 54 52 43 41 34 24 21 21 15 7 15 19 22 26
31 12 6 7 8 5 9 10 12 11 4 25 32 22 29 15 38 31 39 5 51 83 81 78 76 72 67 63 57 56 57 56 47 42 36 32 28 21 21 11 14 22 25 27
19 15 8 5 9 6 5 22 41 25 9 33 40 35 7 18 18 8 31 12 41 72 79 78 74 72 66 65 63 59 62 61 47 45 40 34 27 24 25 13 17 24 24 24
4 6 18 19 8 3 24 36 51 13 10 49 51 46 37 14 15 30 21 22 19 67 80 78 80 76 72 71 69 63 61 59 40 46 41 41 35 29 26 17 20 25 24 26
4 7 4 5 4 2 47 43 17 13 28 52 55 36 24 44 49 25 34 44 38 45 72 81 81 78 78 74 71 65 61 48 41 49 45 43 38 36 26 15 22 22 24 27
3 5 6 6 6 2 5 16 24 27 30 32 42 39 47 48 38 33 49 51 48 42 49 70 79 79 79 75 70 64 51 50 49 50 50 40 40 37 26 17 22 22 29 33
8 12 2 6 12 12 12 27 32 38 43 51 46 30 45 46 51 45 51 54 54 55 34 35 59 71 76 75 70 52 51 53 54 54 55 47 43 40 28 17 20 16 28 36
5 16 15 9 11 27 26 47 45 44 46 49 62 53 55 55 56 35 48 60 59 54 43 28 22 52 68 73 73 59 54 56 58 57 58 53 48 41 31 22 24 15 16 22
2 4 7 6 25 13 33 50 46 45 43 52 62 62 47 53 52 37 47 55 57 47 45 37 18 29 64 72 73 66 59 61 62 62 65 59 54 47 35 29 31 28 18 15
Wind_Direction_500mb
194 189 220 211 216 236 259 245 268 232 217 228 245 257 261 254 248 261 267 270 267 265 268 279 277 242 251 251 255 265 271 258 249 229 218 205 195 195 196 205 221 235 232 228
197 229 234 246 220 231 249 264 266 290 289 236 246 255 263 264 259 252 258 262 262 273 282 276 237 239 243 255 252 263 255 240 235 230 216 215 213 213 230 232 235 233 236 249
217 219 230 241 239 245 231 236 254 261 294 288 291 285 284 266 252 260 266 270 272 274 281 276 251 242 243 248 255 247 227 227 228 212 204 202 211 220 226 223 227 232 236 246
255 229 254 249 230 230 246 241 238 254 250 258 216 277 268 266 264 264 245 254 264 274 274 274 257 244 240 236 230 220 219 215 204 202 199 202 208 195 196 203 217 225 232 241
231 283 172 236 243 225 252 259 232 237 235 251 262 293 267 250 258 247 248 261 265 266 270 276 258 243 223 214 209 207 206 195 191 188 192 183 184 191 200 207 222 221 226 240
226 231 248 248 265 256 325 245 244 253 234 251 219 199 272 248 246 246 218 247 258 270 278 279 269 218 205 199 197 191 187 182 178 177 179 181 188 194 193 202 211 227 232 253
268 235 237 242 257 270 209 47 245 246 197 236 158 211 237 248 279 223 237 248 258 261 262 260 243 196 191 189 184 178 178 170 169 169 178 182 199 204 205 211 221 233 257 271
256 284 174 33 98 273 215 177 197 195 204 230 275 229 240 232 262 266 262 255 263 266 253 227 198 188 186 182 178 174 173 169 168 174 181 188 196 204 206 216 235 247 259 259
192 252 340 319 308 138 308 222 179 287 273 271 226 274 281 275 275 267 269 255 257 263 230 194 186 182 178 173 174 172 165 168 175 180 181 190 205 216 215 217 241 257 254 239
216 292 254 287 301 241 208 253 177 205 200 240 253 257 234 255 261 266 261 245 220 208 179 179 176 175 169 169 166 165 164 168 179 182 189 189 179 191 216 253 255 231 218 207
309 163 298 347 241 218 273 216 191 161 197 221 256 249 197 264 260 278 296 211 165 170 175 173 173 172 165 164 163 163 160 166 169 170 170 155 154 188 240 235 203 191 200 183
309 156 271 260 267 256 258 255 172 219 238 258 242 253 312 251 278 285 242 165 166 168 168 169 171 165 163 160 163 160 159 162 158 161 161 157 185 203 228 201 188 190 188 166
333 326 324 328 315 44 240 103 4 284 206 238 249 263 226 282 276 280 226 153 155 157 158 165 166 166 164 162 163 160 159 159 162 165 159 178 181 247 188 176 170 182 176 158
249 226 203 224 253 304 290 275 306 84 276 246 243 278 273 271 278 292 156 170 159 162 164 165 166 166 167 167 166 163 161 163 168 160 165 167 183 168 187 176 168 176 176 169
157 232 226 255 265 266 262 265 256 235 234 238 299 297 289 289 281 267 207 175 158 157 158 163 167 169 170 169 170 169 167 167 171 170 173 172 172 165 175 179 168 169 179 176
133 267 303 278 272 257 252 252 236 232 235 248 250 273 275 277 294 272 177 168 164 162 161 165 169 171 173 170 172 173 174 175 173 175 177 184 179 150 132 170 177 172 175 176
180 198 261 273 341 110 229 239 232 231 195 208 243 238 302 309 336 40 206 164 162 161 164 168 174 175 175 173 172 176 179 178 180 185 182 189 169 171 157 134 183 185 179 178
224 173 198 278 280 219 187 59 19 302 236 5 279 259 264 173 358 65 69 177 160 160 165 171 176 178 177 175 174 174 181 183 185 194 189 188 175 183 194 191 189 185 172 183
212 204 259 260 299 258 195 15 343 335 176 21 337 302 175 161 58 15 37 94 169 171 176 179 181 180 178 177 176 176 184 185 187 191 185 188 182 192 196 206 193 186 181 187
182 201 183 307 274 294 145 319 301 282 215 355 337 324 29 351 75 288 8 58 184 180 181 181 184 184 180 180 179 180 186 187 190 190 185 190 192 208 197 200 188 187 195 193
333 219 232 243 261 277 338 310 282 176 333 316 325 340 357 61 84 327 15 35 134 183 187 185 185 185 185 182 183 184 185 190 192 190 196 192 201 207 196 194 184 191 196 192
307 297 298 294 266 331 357 358 54 345 334 331 322 327 345 36 58 9 50 55 59 186 188 188 187 188 187 185 186 186 188 189 186 192 195 195 203 196 194 203 180 188 191 179
305 350 323 352 331 113 68 19 12 351 322 313 318 317 21 30 27 30 47 54 59 72 173 184 188 189 188 188 190 187 187 184 182 192 194 200 202 197 199 204 189 183 187 185
324 352 53 231 172 297 36 22 359 333 323 332 319 334 23 17 17 37 38 48 52 59 86 167 187 188 189 192 195 195 181 184 188 195 196 199 202 195 196 197 195 191 191 193
330 318 307 248 6 353 351 345 337 339 340 318 334 357 10 12 23 31 33 37 44 56 66 119 133 200 199 200 201 195 184 186 192 199 198 199 199 201 195 197 197 176 176 179
12 322 328 320 330 319 296 327 348 344 338 320 342 341 1 4 8 35 38 34 33 36 50 65 164 225 214 208 206 198 193 189 194 201 199 201 199 199 203 205 195 186 175 152
Wind_Speed_850mb
11 8 36 47 36 24 19 36 17 5 25 31 36 36 40 38 37 41 70 65 77 83 87 76 66 59 53 56 50 43 46 49 44 47 61 59 56 50 47 45 45 38 30 29
10 39 29 20 14 27 29 28 32 17 17 22 31 45 47 42 38 58 62 63 72 73 86 75 60 54 46 45 43 42 49 46 47 51 62 70 64 49 43 45 42 36 32 32
21 9 18 33 25 30 32 40 31 24 27 46 25 24 23 26 30 52 51 68 73 64 63 62 58 54 51 46 41 49 49 46 44 47 49 48 45 38 44 38 34 39 35 32
19 18 28 23 44 26 39 17 31 32 21 31 17 36 45 36 45 36 41 59 57 64 72 67 54 58 53 43 44 43 42 40 42 41 40 40 38 45 42 33 29 36 40 38
21 13 5 25 31 27 41 23 30 26 22 32 38 13 52 12 35 28 24 47 63 77 68 65 59 53 48 46 50 40 35 39 38 35 30 37 36 31 25 30 30 26 35 35
28 28 22 18 23 17 10 17 20 19 8 19 19 16 56 30 43 29 12 49 65 76 75 65 44 41 52 50 44 36 36 40 37 36 40 35 37 38 29 28 24 24 24 27
5 19 30 27 23 18 10 3 5 5 11 33 24 18 45 11 6 16 23 44 73 73 59 50 40 57 59 54 44 38 45 48 44 42 44 35 37 32 26 28 25 23 23 28
3 7 12 3 5 5 12 18 10 14 8 14 17 26 34 38 62 65 66 63 77 67 32 39 53 68 65 56 46 48 52 53 49 47 40 32 33 28 26 24 25 21 21 20
3 7 9 17 13 12 11 19 10 10 29 1 14 20 37 42 47 42 47 42 61 45 37 59 70 69 61 53 48 52 61 55 50 45 35 29 30 29 23 17 17 18 20 14
2 6 13 10 8 10 18 7 9 8 12 18 13 15 21 13 20 23 21 32 32 37 56 65 69 64 55 46 49 59 55 52 47 38 27 20 19 16 11 13 17 14 14 10
7 7 8 9 7 9 3 8 8 7 8 19 12 17 12 25 24 30 30 40 59 67 69 73 67 60 53 51 59 55 48 47 42 30 20 22 15 10 9 11 11 12 12 12
8 3 8 20 32 34 13 9 11 8 19 9 21 37 16 21 21 23 19 40 64 78 82 77 70 65 61 61 60 53 47 41 31 23 29 16 16 9 10 11 13 10 13 14
7 5 8 18 6 10 8 6 3 10 12 36 12 17 21 18 30 40 10 40 53 64 69 73 70 67 65 64 58 51 43 37 33 27 29 20 12 8 12 12 11 12 17 22
10 8 11 12 18 13 20 17 12 3 5 21 35 33 43 34 40 39 21 46 64 76 80 79 76 70 67 63 57 51 42 36 35 34 28 19 6 4 15 12 11 13 21 25
10 10 18 29 31 32 34 37 23 17 12 5 12 19 37 37 40 42 37 57 59 63 70 77 81 75 71 67 58 51 43 37 37 36 28 20 10 6 14 13 12 14 23 26
5 6 5 28 38 39 41 37 27 28 22 20 30 33 34 42 43 18 55 68 66 69 71 74 79 75 72 67 59 56 48 43 39 40 30 22 14 14 11 11 15 15 20 28
13 9 5 17 18 8 14 24 27 14 10 7 9 14 22 11 27 19 11 71 71 73 76 82 83 77 73 65 56 58 53 48 42 42 32 22 17 14 9 7 17 18 19 27
14 11 7 13 15 8 4 10 4 8 15 5 17 34 23 2 6 37 20 36 59 69 69 77 80 75 66 61 54 53 54 52 43 41 34 24 21 21 15 7 15 19 22 26
31 12 6 7 8 5 9 10 12 11 4 25 32 22 29 15 38 31 39 5 51 83 81 78 76 72 67 63 57 56 57 56 47 42 36 32 28 21 21 11 14 22 25 27
19 15 8 5 9 6 5 22 41 25 9 33 40 35 7 18 18 8 31 12 41 72 79 78 74 72 66 65 63 59 62 61 47 45 40 34 27 24 25 13 17 24 24 24
4 6 18 19 8 3 24 36 51 13 10 49 51 46 37 14 15 30 21 22 19 67 80 78 80 76 72 71 69 63 61 59 40 46 41 41 35 29 26 17 20 25 24 26
4 7 4 5 4 2 47 43 17 13 28 52 55 36 24 44 49 25 34 44 38 45 72 81 81 78 78 74 71 65 61 48 41 49 45 43 38 36 26 15 22 22 24 27
3 5 6 6 6 2 5 16 24 27 30 32 42 39 47 48 38 33 49 51 48 42 49 70 79 79 79 75 70 64 51 50 49 50 50 40 40 37 26 17 22 22 29 33
8 12 2 6 12 12 12 27 32 38 43 51 46 30 45 46 51 45 51 54 54 55 34 35 59 71 76 75 70 52 51 53 54 54 55 47 43 40 28 17 20 16 28 36
5 16 15 9 11 27 26 47 45 44 46 49 62 53 55 55 56 35 48 60 59 54 43 28 22 52 68 73 73 59 54 56 58 57 58 53 48 41 31 22 24 15 16 22
2 4 7 6 25 13 33 50 46 45 43 52 62 62 47 53 52 37 47 55 57 47 45 37 18 29 64 72 73 66 59 61 62 62 65 59 54 47 35 29 31 28 18 15
Wind_Direction_850mb
194 189 220 211 216 236 259 245 268 232 217 228 245 257 261 254 248 261 267 270 267 265 268 279 277 242 251 251 255 265 271 258 249 229 218 205 195 195 196 205 221 235 232 228
197 229 234 246 220 231 249 264 266 290 289 236 246 255 263 264 259 252 258 262 262 273 282 276 237 239 243 255 252 263 255 240 235 230 216 215 213 213 230 232 235 233 236 249
217 219 230 241 239 245 231 236 254 261 294 288 291 285 284 266 252 260 266 270 272 274 281 276 251 242 243 248 255 247 227 227 228 212 204 202 211 220 226 223 227 232 236 246
255 229 254 249 230 230 246 241 238 254 250 258 216 277 268 266 264 264 245 254 264 274 274 274 257 244 240 236 230 220 219 215 204 202 199 202 208 195 196 203 217 225 232 241
231 283 172 236 243 225 252 259 232 237 235 251 262 293 267 250 258 247 248 261 265 266 270 276 258 243 223 214 209 207 206 195 191 188 192 183 184 191 200 207 222 221 226 240
226 231 248 248 265 256 325 245 244 253 234 251 219 199 272 248 246 246 218 247 258 270 278 279 269 218 205 199 197 191 187 182 178 177 179 181 188 194 193 202 211 227 232 253
268 235 237 242 257 270 209 47 245 246 197 236 158 211 237 248 279 223 237 248 258 261 262 260 243 196 191 189 184 178 178 170 169 169 178 182 199 204 205 211 221 233 257 271
256 284 174 33 98 273 215 177 197 195 204 230 275 229 240 232 262 266 262 255 263 266 253 227 198 188 186 182 178 174 173 169 168 174 181 188 196 204 206 216 235 247 259 259
192 252 340 319 308 138 308 222 179 287 273 271 226 274 281 275 275 267 269 255 257 263 230 194 186 182 178 173 174 172 165 168 175 180 181 190 205 216 215 217 241 257 254 239
216 292 254 287 301 241 208 253 177 205 200 240 253 257 234 255 261 266 261 245 220 208 179 179 176 175 169 169 166 165 164 168 179 182 189 189 179 191 216 253 255 231 218 207
309 163 298 347 241 218 273 216 191 161 197 221 256 249 197 264 260 278 296 211 165 170 175 173 173 172 165 164 163 163 160 166 169 170 170 155 154 188 240 235 203 191 200 183
309 156 271 260 267 256 258 255 172 219 238 258 242 253 312 251 278 285 242 165 166 168 168 169 171 165 163 160 163 160 159 162 158 161 161 157 185 203 228 201 188 190 188 166
333 326 324 328 315 44 240 103 4 284 206 238 249 263 226 282 276 280 226 153 155 157 158 165 166 166 164 162 163 160 159 159 162 165 159 178 181 247 188 176 170 182 176 158
249 226 203 224 253 304 290 275 306 84 276 246 243 278 273 271 278 292 156 170 159 162 164 165 166 166 167 167 166 163 161 163 168 160 165 167 183 168 187 176 168 176 176 169
157 232 226 255 265 266 262 265 256 235 234 238 299 297 289 289 281 267 207 175 158 157 158 163 167 169 170 169 170 169 167 167 171 170 173 172 172 165 175 179 168 169 179 176
133 267 303 278 272 257 252 252 236 232 235 248 250 273 275 277 294 272 177 168 164 162 161 165 169 171 173 170 172 173 174 175 173 175 177 184 179 150 132 170 177 172 175 176
180 198 261 273 341 110 229 239 232 231 195 208 243 238 302 309 336 40 206 164 162 161 164 168 174 175 175 173 172 176 179 178 180 185 182 189 169 171 157 134 183 185 179 178
224 173 198 278 280 219 187 59 19 302 236 5 279 259 264 173 358 65 69 177 160 160 165 171 176 178 177 175 174 174 181 183 185 194 189 188 175 183 194 191 189 185 172 183
212 204 259 260 299 258 195 15 343 335 176 21 337 302 175 161 58 15 37 94 169 171 176 179 181 180 178 177 176 176 184 185 187 191 185 188 182 192 196 206 193 186 181 187
182 201 183 307 274 294 145 319 301 282 215 355 337 324 29 351 75 288 8 58 184 180 181 181 184 184 180 180 179 180 186 187 190 190 185 190 192 208 197 200 188 187 195 193
333 219 232 243 261 277 338 310 282 176 333 316 325 340 357 61 84 327 15 35 134 183 187 185 185 185 185 182 183 184 185 190 192 190 196 192 201 207 196 194 184 191 196 192
307 297 298 294 266 331 357 358 54 345 334 331 322 327 345 36 58 9 50 55 59 186 188 188 187 188 187 185 186 186 188 189 186 192 195 195 203 196 194 203 180 188 191 179
305 350 323 352 331 113 68 19 12 351 322 313 318 317 21 30 27 30 47 54 59 72 173 184 188 189 188 188 190 187 187 184 182 192 194 200 202 197 199 204 189 183 187 185
324 352 53 231 172 297 36 22 359 333 323 332 319 334 23 17 17 37 38 48 52 59 86 167 187 188 189 192 195 195 181 184 188 195 196 199 202 195 196 197 195 191 191 193
330 318 307 248 6 353 351 345 337 339 340 318 334 357 10 12 23 31 33 37 44 56 66 119 133 200 199 200 201 195 184 186 192 199 198 199 199 201 195 197 197 176 176 179
12 322 328 320 330 319 296 327 348 344 338 320 342 341 1 4 8 35 38 34 33 36 50 65 164 225 214 208 206 198 193 189 194 201 199 201 199 199 203 205 195 186 175 152